Date_and_time,latitude,longitude,wind_speed,RelWindDirFrom,WindDirFrom,air_pressure,air_temperature,relative_humidity,Temp,platform_speed_wrt_ground,air_pressure_at_mean_sea_level,platform_orientation
2018-05-26 23:40,50.630475,-96.9807633333333,7.0,7.8,150,979.21,18.1,100,12.96,0.0,1005.11,90.0
2018-05-26 23:50,50.6304533333333,-96.9807616666667,7.2,8.0,153,979.16,18.1,100,13.01,0.0,1005.04,90.0
2018-05-27 00:00,50.6304516666667,-96.98076,6.3,7.2,157,979.21,18.1,100,12.92,0.0,1005.10,360.0
2018-05-27 00:10,50.630425,-96.9807616666667,5.7,6.5,160,979.20,18.2,100,13.03,0.0,1005.10,360.0
2018-05-27 00:20,50.6304383333333,-96.98077,5.8,6.5,156,979.23,18.3,100,13.26,0.0,1005.13,360.0
2018-05-27 00:30,50.63043,-96.98077,6.0,6.8,169,979.46,18.6,100,13.39,0.0,1005.31,360.0
2018-05-27 00:40,50.6304416666667,-96.9807683333333,6.1,7.3,166,979.51,18.8,99,13.50,0.0,1005.35,360.0
2018-05-27 00:50,50.6304516666667,-96.9807616666667,5.6,6.7,168,979.52,19.0,97,13.60,0.0,1005.36,360.0
2018-05-27 01:00,50.6304483333333,-96.98077,6.1,6.9,162,979.50,19.0,99,13.58,0.0,1005.35,311.7
2018-05-27 01:10,50.6304366666667,-96.98077,6.8,7.9,160,979.46,19.0,99,13.22,0.0,1005.33,311.7
2018-05-27 01:20,50.6304616666667,-96.980785,7.4,8.5,169,979.45,18.8,99,13.61,0.0,1005.33,311.7
2018-05-27 01:30,50.6304566666667,-96.980765,8.0,8.8,174,979.39,18.4,100,13.63,0.0,1005.27,311.7
2018-05-27 01:40,50.6304566666667,-96.9807666666667,7.4,8.5,178,979.45,18.5,100,13.72,0.0,1005.33,311.7
2018-05-27 01:50,50.63046,-96.9807816666667,6.3,7.2,178,979.50,18.4,99,13.69,0.0,1005.38,311.7
2018-05-27 02:00,50.6304516666667,-96.9807483333333,6.5,7.3,180,979.54,18.1,100,13.69,0.0,1005.43,360.0
2018-05-27 02:10,50.6304466666667,-96.9807616666667,6.2,7.4,176,979.57,17.9,100,13.91,0.0,1005.46,360.0
2018-05-27 02:20,50.63043,-96.98078,4.3,4.8,183,979.75,17.6,100,14.06,0.0,1005.65,360.0
2018-05-27 02:30,50.6304466666667,-96.98075,4.0,4.5,177,979.80,17.5,100,13.99,0.0,1005.70,360.0
2018-05-27 02:40,50.630445,-96.9807433333333,3.8,4.2,173,979.88,17.4,100,13.75,0.0,1005.77,360.0
2018-05-27 02:50,50.630445,-96.980745,2.2,3.6,170,980.08,17.1,101,13.54,0.0,1006.00,360.0
2018-05-27 03:00,50.6304466666667,-96.9807483333333,3.2,5.2,92,980.12,17.1,101,13.49,0.0,1006.04,167.4
2018-05-27 03:10,50.6304483333333,-96.9807566666667,4.2,4.6,146,980.14,16.8,101,13.62,0.0,1006.08,167.4
2018-05-27 03:20,50.6304583333333,-96.9807583333333,3.7,4.4,149,980.11,17.2,101,13.68,0.0,1006.04,167.4
2018-05-27 03:30,50.6304633333333,-96.9807583333333,2.8,3.9,138,980.20,17.0,102,13.63,0.0,1006.14,167.4
2018-05-27 03:40,50.6304616666667,-96.9807583333333,1.9,2.7,161,980.27,16.1,102,13.59,0.0,1006.26,167.4
2018-05-27 03:50,50.63046,-96.9807433333333,1.8,2.9,188,980.35,16.0,103,13.51,0.0,1006.36,167.4
2018-05-27 04:00,50.6304683333333,-96.98073,0.2,3.5,133,980.28,16.3,103,13.40,0.0,1006.28,43.8
2018-05-27 04:10,50.6304433333333,-96.980755,2.4,4.5,34,980.29,15.8,103,13.33,0.0,1006.32,43.8
2018-05-27 04:20,50.6304483333333,-96.9807533333333,2.4,3.2,83,980.26,15.9,104,13.29,0.0,1006.30,43.8
2018-05-27 04:30,50.6304566666667,-96.98077,1.5,3.2,78,980.33,15.9,104,13.28,0.0,1006.38,43.8
2018-05-27 04:40,50.6304516666667,-96.980755,2.4,4.1,115,980.39,16.2,104,13.34,0.0,1006.43,43.8
2018-05-27 04:50,50.63045,-96.9807483333333,1.9,3.2,158,980.47,15.9,104,13.38,0.0,1006.53,43.8
2018-05-27 05:00,50.6304516666667,-96.98075,1.7,2.5,169,980.42,15.9,104,13.38,0.0,1006.49,0.0
2018-05-27 05:10,50.6304483333333,-96.980735,1.5,2.6,175,980.44,16.0,104,13.35,0.0,1006.49,0.0
2018-05-27 05:20,50.6304583333333,-96.9807233333333,2.3,3.3,188,980.47,16.1,104,13.34,0.0,1006.53,0.0
2018-05-27 05:30,50.6304666666667,-96.98078,3.3,3.9,203,980.59,16.4,104,13.39,0.0,1006.68,0.0
2018-05-27 05:40,50.6304633333333,-96.9807566666667,2.5,3.7,222,980.73,16.6,104,13.40,0.0,1006.81,0.0
2018-05-27 05:50,50.6304616666667,-96.9807533333333,0.9,1.9,227,980.85,16.5,104,13.41,0.0,1006.93,0.0
2018-05-27 06:00,50.6304583333333,-96.980755,2.3,3.0,233,980.92,16.5,104,13.42,0.0,1007.03,345.5
2018-05-27 06:10,50.6304583333333,-96.980755,2.6,3.7,239,980.96,16.4,104,13.41,0.0,1007.06,345.5
2018-05-27 06:20,50.6304566666667,-96.980755,0.4,1.1,267,980.66,16.3,104,13.45,0.0,1006.77,345.5
2018-05-27 06:30,50.630465,-96.9807833333333,1.1,2.0,37,980.32,16.0,104,13.45,0.0,1006.42,345.5
2018-05-27 06:40,50.6304633333333,-96.980795,0.8,2.1,13,980.32,15.5,104,13.51,0.0,1006.45,345.5
2018-05-27 06:50,50.6304616666667,-96.98077,1.2,1.7,322,980.73,15.4,104,13.54,0.0,1006.88,345.5
2018-05-27 07:00,50.630435,-96.9807566666667,0.7,1.5,287,980.76,15.5,104,13.57,0.0,1006.90,203.7
2018-05-27 07:10,50.63044,-96.980755,1.3,2.5,228,980.73,15.2,104,13.57,0.0,1006.87,203.7
2018-05-27 07:20,50.6304533333333,-96.9807516666667,2.3,3.0,215,980.78,14.7,104,13.56,0.0,1006.94,203.7
2018-05-27 07:30,50.6304466666667,-96.980755,1.6,2.1,226,980.95,14.9,104,13.56,0.0,1007.09,203.7
2018-05-27 07:40,50.6304483333333,-96.9807533333333,1.0,1.6,224,980.91,15.1,104,13.59,0.0,1007.04,203.7
2018-05-27 07:50,50.63045,-96.9807516666667,0.0,0.2,0,980.73,14.8,104,13.59,0.0,1006.88,203.7
2018-05-27 08:00,50.63045,-96.98075,0.7,1.3,223,980.85,14.2,104,13.54,0.0,1007.04,0.0
2018-05-27 08:10,50.63045,-96.98075,0.2,0.8,300,981.04,14.3,104,13.51,0.0,1007.23,0.0
2018-05-27 08:20,50.6304483333333,-96.9807483333333,0.1,1.1,9,981.13,14.3,104,13.50,0.0,1007.34,0.0
2018-05-27 08:30,50.6304483333333,-96.9807483333333,4.2,6.4,345,981.52,14.1,104,13.44,0.0,1007.77,0.0
2018-05-27 08:40,50.63046,-96.9807633333333,2.7,5.7,299,981.92,14.1,104,13.43,0.0,1008.18,0.0
2018-05-27 08:50,50.63043,-96.9807433333333,3.8,5.3,326,982.04,14.0,104,13.38,0.0,1008.30,0.0
2018-05-27 09:00,50.6304366666667,-96.980755,6.1,8.3,315,982.55,14.3,104,13.31,0.0,1008.83,360.0
2018-05-27 09:10,50.6304416666667,-96.9807516666667,5.6,7.5,316,982.62,14.6,104,13.30,0.0,1008.91,360.0
2018-05-27 09:20,50.63043,-96.98074,5.2,6.8,317,982.64,14.7,104,13.27,0.0,1008.91,360.0
2018-05-27 09:30,50.6304083333333,-96.98075,4.5,6.1,310,982.63,14.9,105,13.21,0.0,1008.89,360.0
2018-05-27 09:40,50.6304333333333,-96.9807516666667,3.3,5.2,332,982.42,14.9,105,13.17,0.0,1008.69,360.0
2018-05-27 09:50,50.6304383333333,-96.98075,2.1,3.0,12,982.45,14.7,104,13.03,0.0,1008.75,360.0
2018-05-27 10:00,50.6304416666667,-96.9807516666667,0.8,1.6,345,982.40,14.6,104,12.96,0.0,1008.70,48.3
2018-05-27 10:10,50.6304433333333,-96.9807533333333,0.1,1.0,69,982.30,14.7,104,12.91,0.0,1008.59,48.3
2018-05-27 10:20,50.630445,-96.9807533333333,0.6,1.3,319,982.21,14.7,104,13.21,0.0,1008.52,48.3
2018-05-27 10:30,50.630445,-96.9807533333333,1.9,3.1,335,982.02,14.7,105,13.41,0.0,1008.31,48.3
2018-05-27 10:40,50.6304433333333,-96.9807533333333,1.4,3.1,333,981.74,14.8,105,13.40,0.0,1008.03,48.3
2018-05-27 10:50,50.630445,-96.9807533333333,2.5,3.9,220,981.79,14.3,104,13.37,0.0,1008.09,48.3
2018-05-27 11:00,50.6304466666667,-96.980755,2.2,3.6,247,981.88,14.4,104,13.55,0.0,1008.17,192.6
2018-05-27 11:10,50.6304466666667,-96.980755,1.7,3.1,215,982.08,14.4,104,13.67,0.0,1008.36,192.6
2018-05-27 11:20,50.6304466666667,-96.9807533333333,3.8,5.2,159,981.90,14.0,104,13.65,0.0,1008.18,192.6
2018-05-27 11:30,50.6304466666667,-96.9807533333333,4.4,6.5,148,981.67,14.3,104,13.63,0.0,1007.94,192.6
2018-05-27 11:40,50.6304666666667,-96.9807716666667,0.8,2.2,196,982.03,14.4,104,13.59,0.0,1008.31,192.6
2018-05-27 11:50,50.6304333333333,-96.980775,2.6,4.2,216,982.31,14.7,105,13.57,0.0,1008.59,192.6
2018-05-27 12:00,50.6304716666667,-96.98076,4.3,5.3,221,982.53,14.8,105,13.57,0.0,1008.80,360.0
2018-05-27 12:10,50.6304433333333,-96.9807716666667,2.7,5.1,218,982.70,14.8,105,13.58,0.0,1008.98,360.0
2018-05-27 12:20,50.63045,-96.9807633333333,3.5,4.4,217,983.00,14.7,105,13.60,0.0,1009.29,360.0
2018-05-27 12:30,50.6304516666667,-96.9807566666667,4.5,5.8,208,983.26,14.7,105,13.65,0.0,1009.56,360.0
2018-05-27 12:40,50.6304533333333,-96.9807566666667,5.0,6.0,213,983.59,14.8,104,13.69,0.0,1009.91,360.0
2018-05-27 12:50,50.6304516666667,-96.9807583333333,4.7,6.0,213,983.76,14.9,104,13.67,0.0,1010.09,360.0
2018-05-27 13:00,50.63045,-96.9807566666667,4.4,5.5,210,983.90,15.0,104,13.54,0.0,1010.22,360.0
2018-05-27 13:10,50.63045,-96.9807583333333,3.1,4.9,196,984.00,14.9,104,13.66,0.0,1010.35,360.0
2018-05-27 13:20,50.6304533333333,-96.980765,4.9,7.2,207,984.39,15.0,104,13.77,0.0,1010.73,360.0
2018-05-27 13:30,50.63045,-96.9807566666667,6.7,8.4,213,984.60,15.3,104,13.73,0.0,1010.92,360.0
2018-05-27 13:40,50.63045,-96.980755,5.8,7.2,204,984.66,15.4,104,13.68,0.0,1010.97,360.0
2018-05-27 13:50,50.6304516666667,-96.9807533333333,6.9,7.9,182,984.35,15.5,104,13.83,0.0,1010.64,360.0
2018-05-27 14:00,50.6304483333333,-96.980755,6.6,8.6,196,984.29,15.7,103,13.92,0.0,1010.56,0.0
2018-05-27 14:10,50.6304516666667,-96.9807666666667,5.8,8.2,198,984.15,16.0,103,13.93,0.0,1010.41,0.0
2018-05-27 14:20,50.63044,-96.9807416666667,4.2,5.5,188,983.93,16.3,103,13.93,0.0,1010.17,0.0
2018-05-27 14:30,50.6304466666667,-96.98076,4.0,5.0,172,983.72,16.4,103,13.90,0.0,1009.95,0.0
2018-05-27 14:40,50.6304466666667,-96.9807483333333,4.6,5.4,171,983.48,16.6,103,13.93,0.0,1009.69,0.0
2018-05-27 14:50,50.6304466666667,-96.9807483333333,3.4,5.3,165,983.36,17.0,102,13.94,0.0,1009.55,0.0
2018-05-27 15:00,50.6304483333333,-96.98075,6.1,6.8,121,983.05,16.4,103,13.96,0.0,1009.26,360.0
2018-05-27 15:10,50.6304483333333,-96.9807516666667,6.8,7.6,115,982.72,15.9,103,13.91,0.0,1008.94,360.0
2018-05-27 15:20,50.6304483333333,-96.9807516666667,7.0,7.7,114,982.56,16.0,104,13.74,0.0,1008.76,360.0
2018-05-27 15:30,50.6304466666667,-96.9807683333333,5.5,6.6,122,982.60,16.0,104,13.63,0.0,1008.79,360.0
2018-05-27 15:40,50.6304516666667,-96.98076,5.0,6.5,140,982.62,15.6,104,13.50,0.0,1008.83,360.0
2018-05-27 15:50,50.6304483333333,-96.9807583333333,5.4,6.8,144,982.66,15.4,104,13.36,0.0,1008.86,360.0
2018-05-27 16:00,50.6304266666667,-96.9807533333333,6.0,8.4,157,982.95,15.5,104,13.38,0.0,1009.15,360.0
2018-05-27 16:10,50.6304383333333,-96.9807583333333,7.1,10.7,177,983.45,15.9,104,13.29,0.0,1009.63,360.0
2018-05-27 16:20,50.6304433333333,-96.9807566666667,6.5,9.4,187,983.77,16.4,104,13.46,0.0,1009.92,360.0
2018-05-27 16:30,50.6304416666667,-96.980755,6.8,8.3,182,983.99,16.5,103,13.53,0.0,1010.13,360.0
2018-05-27 16:40,50.6304433333333,-96.980755,4.2,6.8,184,984.07,16.7,103,13.67,0.0,1010.20,360.0
2018-05-27 16:50,50.630445,-96.980755,2.2,3.8,191,984.06,17.0,103,13.78,0.0,1010.20,360.0
2018-05-27 17:00,50.630445,-96.980755,1.5,2.2,243,984.07,17.3,103,13.80,0.0,1010.22,360.0
2018-05-27 17:10,50.630445,-96.9806933333333,1.3,3.1,241,983.97,17.6,103,13.76,0.0,1010.10,360.0
2018-05-27 17:20,50.6304466666667,-96.980715,1.2,3.5,345,984.02,17.8,103,13.79,0.0,1010.14,360.0
2018-05-27 17:30,50.6304516666667,-96.9807316666667,1.2,2.6,313,984.01,17.6,103,13.89,0.0,1010.15,360.0
2018-05-27 17:40,50.6304516666667,-96.9807366666667,3.3,5.7,253,983.96,18.5,102,13.82,0.0,1010.07,360.0
2018-05-27 17:50,50.630445,-96.9807616666667,6.4,9.3,252,984.07,19.4,101,13.76,0.0,1010.14,360.0
2018-05-27 18:00,50.630445,-96.9807583333333,5.1,8.6,256,983.89,19.9,100,13.70,0.0,1009.92,192.6
2018-05-27 18:10,50.630445,-96.9807516666667,4.2,6.2,229,983.57,20.2,94,13.69,0.0,1009.55,192.6
2018-05-27 18:20,50.6304783333333,-96.9807833333333,3.4,6.7,261,983.61,21.1,85,13.81,0.0,1009.54,192.6
2018-05-27 18:30,50.6304516666667,-96.980745,3.0,6.3,266,983.65,21.8,75,13.76,0.0,1009.55,192.6
2018-05-27 18:40,50.630445,-96.9807533333333,4.8,9.8,82,983.65,21.2,88,13.55,0.0,1009.56,192.6
2018-05-27 18:50,50.6304416666667,-96.98075,6.5,8.1,97,983.62,19.4,100,13.25,0.0,1009.60,192.6
2018-05-27 19:00,50.6304433333333,-96.980755,7.4,8.2,106,983.57,19.0,100,13.36,0.0,1009.56,336.5
2018-05-27 19:10,50.6304433333333,-96.980755,6.8,7.7,103,983.76,19.2,100,13.35,0.0,1009.72,336.5
2018-05-27 19:20,50.6304433333333,-96.980755,7.5,9.0,108,983.73,19.5,100,13.24,0.0,1009.69,336.5
2018-05-27 19:30,50.630455,-96.9807833333333,8.6,11.0,109,983.64,19.5,100,13.24,0.0,1009.55,336.5
2018-05-27 19:40,50.6304516666667,-96.9807616666667,8.8,10.5,105,983.64,19.6,100,13.40,0.0,1009.51,336.5
2018-05-27 19:50,50.63045,-96.980765,6.3,9.3,96,983.60,20.1,100,13.48,0.0,1009.43,336.5
2018-05-27 20:00,50.6304516666667,-96.9807666666667,5.1,9.5,115,983.61,20.2,100,13.48,0.0,1009.42,360.0
2018-05-27 20:10,50.63045,-96.980765,10.5,12.2,129,983.50,19.2,101,13.59,0.0,1009.32,360.0
2018-05-27 20:20,50.6304466666667,-96.9807633333333,9.4,12.3,135,983.46,18.6,101,13.66,0.0,1009.26,360.0
2018-05-27 20:30,50.6304483333333,-96.9807633333333,10.0,12.7,140,983.36,18.6,101,13.70,0.0,1009.19,360.0
2018-05-27 20:40,50.630455,-96.9807466666667,9.4,12.6,135,983.31,19.2,100,13.74,0.0,1009.19,360.0
2018-05-27 20:50,50.6304416666667,-96.980745,9.6,13.3,145,983.33,19.9,98,13.83,0.0,1009.20,360.0
2018-05-27 21:00,50.6304533333333,-96.9807766666667,8.8,11.6,143,983.27,21.0,87,13.93,0.0,1009.08,323.4
2018-05-27 21:10,50.63042,-96.9807116666667,5.1,13.8,179,983.32,21.5,78,13.90,0.0,1009.10,323.4
2018-05-27 21:20,50.6304333333333,-96.9807366666667,9.0,13.1,228,983.33,24.9,52,14.01,0.0,1008.96,323.4
2018-05-27 21:30,50.63044,-96.9807483333333,8.3,14.6,227,983.27,25.5,51,14.14,0.0,1008.86,323.4
2018-05-27 21:40,50.6304416666667,-96.9807516666667,7.0,12.2,224,983.23,25.4,51,14.25,0.0,1008.81,323.4
2018-05-27 21:50,50.63044,-96.9807533333333,8.2,14.9,232,983.20,25.8,49,14.57,0.0,1008.76,323.4
2018-05-27 22:00,50.6304416666667,-96.9807533333333,8.5,12.0,227,983.14,25.8,50,14.82,0.0,1008.74,90.0
2018-05-27 22:10,50.6304433333333,-96.980755,8.2,15.0,244,983.09,26.0,48,15.01,0.0,1008.70,90.0
2018-05-27 22:20,50.6304533333333,-96.9807783333333,7.3,10.6,255,983.00,26.3,47,15.10,0.0,1008.60,90.0
2018-05-27 22:30,50.6304433333333,-96.98074,8.9,13.5,236,983.03,26.3,46,15.08,0.0,1008.59,90.0
2018-05-27 22:40,50.6304383333333,-96.9807633333333,7.3,10.8,238,983.07,26.4,45,15.10,0.0,1008.61,90.0
2018-05-27 22:50,50.6304466666667,-96.9807583333333,9.3,15.4,231,983.10,26.2,47,15.18,0.0,1008.59,90.0
2018-05-27 23:00,50.6304466666667,-96.9807583333333,7.8,11.8,237,983.10,26.3,47,15.34,0.0,1008.57,167.4
2018-05-27 23:10,50.6304466666667,-96.9807566666667,7.5,11.8,250,983.10,26.5,48,15.42,0.0,1008.42,167.4
2018-05-27 23:20,50.63045,-96.9807616666667,6.6,11.2,249,982.92,26.6,47,15.37,0.0,1008.20,167.4
2018-05-27 23:30,50.6304516666667,-96.9807516666667,6.3,13.2,272,982.79,26.6,47,15.45,0.0,1008.08,167.4
2018-05-27 23:40,50.6304516666667,-96.980755,7.1,14.3,267,982.77,26.9,46,15.15,0.0,1008.02,167.4
